﻿測定場所 (Monitoring sites),日付 (Measurement date),時間 (Measurement time),線量率 最大値 (max) μGy/h,線量率 最小値 (min) μGy/h,線量率 平均値 (average) μGy/h,
新宿 (Shinjuku),2018-09-23,23:01～24:00,0.0394,0.0342,0.0364,
新宿 (Shinjuku),2018-09-23,22:01～23:00,0.0395,0.0337,0.0364,
新宿 (Shinjuku),2018-09-23,21:01～22:00,0.0370,0.0341,0.0360,
新宿 (Shinjuku),2018-09-23,20:01～21:00,0.0385,0.0342,0.0362,
新宿 (Shinjuku),2018-09-23,19:01～20:00,0.0407,0.0342,0.0364,
新宿 (Shinjuku),2018-09-23,18:01～19:00,0.0395,0.0344,0.0364,
新宿 (Shinjuku),2018-09-23,17:01～18:00,0.0391,0.0349,0.0364,
新宿 (Shinjuku),2018-09-23,16:01～17:00,0.0399,0.0344,0.0365,
新宿 (Shinjuku),2018-09-23,15:01～16:00,0.0397,0.0341,0.0364,
新宿 (Shinjuku),2018-09-23,14:01～15:00,0.0397,0.0339,0.0365,
新宿 (Shinjuku),2018-09-23,13:01～14:00,0.0405,0.0344,0.0366,
新宿 (Shinjuku),2018-09-23,12:01～13:00,0.0401,0.0343,0.0366,
新宿 (Shinjuku),2018-09-23,11:01～12:00,0.0409,0.0341,0.0366,
新宿 (Shinjuku),2018-09-23,10:01～11:00,0.0403,0.0339,0.0370,
新宿 (Shinjuku),2018-09-23,09:01～10:00,0.0397,0.0350,0.0366,
新宿 (Shinjuku),2018-09-23,08:01～09:00,0.0391,0.0335,0.0364,
新宿 (Shinjuku),2018-09-23,07:01～08:00,0.0399,0.0343,0.0369,
新宿 (Shinjuku),2018-09-23,06:01～07:00,0.0406,0.0351,0.0369,
新宿 (Shinjuku),2018-09-23,05:01～06:00,0.0402,0.0347,0.0369,
新宿 (Shinjuku),2018-09-23,04:01～05:00,0.0401,0.0349,0.0369,
新宿 (Shinjuku),2018-09-23,03:01～04:00,0.0407,0.0342,0.0371,
新宿 (Shinjuku),2018-09-23,02:01～03:00,0.0390,0.0350,0.0368,
新宿 (Shinjuku),2018-09-23,01:01～02:00,0.0386,0.0349,0.0366,
新宿 (Shinjuku),2018-09-23,00:01～01:00,0.0402,0.0339,0.0369,
新宿 (Shinjuku),2018-09-22,23:01～24:00,0.0402,0.0343,0.0371,
新宿 (Shinjuku),2018-09-22,22:01～23:00,0.0396,0.0348,0.0369,
新宿 (Shinjuku),2018-09-22,21:01～22:00,0.0406,0.0343,0.0368,
新宿 (Shinjuku),2018-09-22,20:01～21:00,0.0416,0.0343,0.0368,
新宿 (Shinjuku),2018-09-22,19:01～20:00,0.0418,0.0345,0.0368,
新宿 (Shinjuku),2018-09-22,18:01～19:00,0.0409,0.0347,0.0365,
新宿 (Shinjuku),2018-09-22,17:01～18:00,0.0396,0.0337,0.0363,
新宿 (Shinjuku),2018-09-22,16:01～17:00,0.0396,0.0341,0.0365,
新宿 (Shinjuku),2018-09-22,15:01～16:00,0.0391,0.0350,0.0366,
新宿 (Shinjuku),2018-09-22,14:01～15:00,0.0411,0.0348,0.0371,
新宿 (Shinjuku),2018-09-22,13:01～14:00,0.0399,0.0347,0.0370,
新宿 (Shinjuku),2018-09-22,12:01～13:00,0.0429,0.0357,0.0388,
新宿 (Shinjuku),2018-09-22,11:01～12:00,0.0509,0.0380,0.0429,
新宿 (Shinjuku),2018-09-22,10:01～11:00,0.0476,0.0356,0.0419,
新宿 (Shinjuku),2018-09-22,09:01～10:00,0.0412,0.0359,0.0385,
新宿 (Shinjuku),2018-09-22,08:01～09:00,0.0411,0.0356,0.0373,
新宿 (Shinjuku),2018-09-22,07:01～08:00,0.0407,0.0353,0.0374,
新宿 (Shinjuku),2018-09-22,06:01～07:00,0.0392,0.0349,0.0366,
新宿 (Shinjuku),2018-09-22,05:01～06:00,0.0397,0.0342,0.0366,
新宿 (Shinjuku),2018-09-22,04:01～05:00,0.0390,0.0337,0.0365,
新宿 (Shinjuku),2018-09-22,03:01～04:00,0.0403,0.0337,0.0366,
新宿 (Shinjuku),2018-09-22,02:01～03:00,0.0394,0.0342,0.0364,
新宿 (Shinjuku),2018-09-22,01:01～02:00,0.0401,0.0340,0.0363,
新宿 (Shinjuku),2018-09-22,00:01～01:00,0.0403,0.0351,0.0368,
新宿 (Shinjuku),2018-09-21,23:01～24:00,0.0401,0.0348,0.0366,
新宿 (Shinjuku),2018-09-21,22:01～23:00,0.0402,0.0346,0.0367,
新宿 (Shinjuku),2018-09-21,21:01～22:00,0.0406,0.0359,0.0375,
新宿 (Shinjuku),2018-09-21,20:01～21:00,0.0443,0.0366,0.0395,
新宿 (Shinjuku),2018-09-21,19:01～20:00,0.0507,0.0386,0.0443,
新宿 (Shinjuku),2018-09-21,18:01～19:00,0.0510,0.0404,0.0459,
新宿 (Shinjuku),2018-09-21,17:01～18:00,0.0482,0.0401,0.0446,
新宿 (Shinjuku),2018-09-21,16:01～17:00,0.0473,0.0410,0.0441,
新宿 (Shinjuku),2018-09-21,15:01～16:00,0.0471,0.0399,0.0436,
新宿 (Shinjuku),2018-09-21,14:01～15:00,0.0535,0.0424,0.0481,
新宿 (Shinjuku),2018-09-21,13:01～14:00,0.0543,0.0442,0.0494,
新宿 (Shinjuku),2018-09-21,12:01～13:00,0.0493,0.0417,0.0458,
新宿 (Shinjuku),2018-09-21,11:01～12:00,0.0501,0.0418,0.0467,
新宿 (Shinjuku),2018-09-21,10:01～11:00,0.0525,0.0435,0.0475,
新宿 (Shinjuku),2018-09-21,09:01～10:00,0.0574,0.0460,0.0514,
新宿 (Shinjuku),2018-09-21,08:01～09:00,0.0541,0.0453,0.0490,
新宿 (Shinjuku),2018-09-21,07:01～08:00,0.0518,0.0447,0.0483,
新宿 (Shinjuku),2018-09-21,06:01～07:00,0.0510,0.0443,0.0477,
新宿 (Shinjuku),2018-09-21,05:01～06:00,0.0527,0.0457,0.0489,
新宿 (Shinjuku),2018-09-21,04:01～05:00,0.0521,0.0457,0.0490,
新宿 (Shinjuku),2018-09-21,03:01～04:00,0.0559,0.0440,0.0496,
新宿 (Shinjuku),2018-09-21,02:01～03:00,0.0556,0.0455,0.0511,
新宿 (Shinjuku),2018-09-21,01:01～02:00,0.0533,0.0467,0.0495,
新宿 (Shinjuku),2018-09-21,00:01～01:00,0.0575,0.0507,0.0542,
新宿 (Shinjuku),2018-09-20,23:01～24:00,0.0575,0.0495,0.0532,
新宿 (Shinjuku),2018-09-20,22:01～23:00,0.0529,0.0449,0.0491,
新宿 (Shinjuku),2018-09-20,21:01～22:00,0.0521,0.0423,0.0462,
新宿 (Shinjuku),2018-09-20,20:01～21:00,0.0508,0.0444,0.0472,
新宿 (Shinjuku),2018-09-20,19:01～20:00,0.0487,0.0399,0.0434,
新宿 (Shinjuku),2018-09-20,18:01～19:00,0.0478,0.0404,0.0438,
新宿 (Shinjuku),2018-09-20,17:01～18:00,0.0564,0.0441,0.0491,
新宿 (Shinjuku),2018-09-20,16:01～17:00,0.0573,0.0496,0.0538,
新宿 (Shinjuku),2018-09-20,15:01～16:00,0.0535,0.0452,0.0489,
新宿 (Shinjuku),2018-09-20,14:01～15:00,0.0465,0.0367,0.0416,
新宿 (Shinjuku),2018-09-20,13:01～14:00,0.0418,0.0338,0.0374,
新宿 (Shinjuku),2018-09-20,12:01～13:00,0.0403,0.0348,0.0371,
新宿 (Shinjuku),2018-09-20,11:01～12:00,0.0418,0.0352,0.0372,
新宿 (Shinjuku),2018-09-20,10:01～11:00,0.0401,0.0352,0.0373,
新宿 (Shinjuku),2018-09-20,09:01～10:00,0.0402,0.0349,0.0372,
新宿 (Shinjuku),2018-09-20,08:01～09:00,0.0400,0.0345,0.0372,
新宿 (Shinjuku),2018-09-20,07:01～08:00,0.0399,0.0347,0.0373,
新宿 (Shinjuku),2018-09-20,06:01～07:00,0.0408,0.0348,0.0370,
新宿 (Shinjuku),2018-09-20,05:01～06:00,0.0406,0.0350,0.0371,
新宿 (Shinjuku),2018-09-20,04:01～05:00,0.0422,0.0341,0.0372,
新宿 (Shinjuku),2018-09-20,03:01～04:00,0.0402,0.0342,0.0369,
新宿 (Shinjuku),2018-09-20,02:01～03:00,0.0400,0.0351,0.0370,
新宿 (Shinjuku),2018-09-20,01:01～02:00,0.0410,0.0350,0.0371,
新宿 (Shinjuku),2018-09-20,00:01～01:00,0.0406,0.0352,0.0372,
新宿 (Shinjuku),2018-09-19,23:01～24:00,0.0393,0.0355,0.0367,
新宿 (Shinjuku),2018-09-19,22:01～23:00,0.0413,0.0345,0.0369,
新宿 (Shinjuku),2018-09-19,21:01～22:00,0.0394,0.0342,0.0367,
新宿 (Shinjuku),2018-09-19,20:01～21:00,0.0397,0.0334,0.0363,
新宿 (Shinjuku),2018-09-19,19:01～20:00,0.0411,0.0329,0.0367,
新宿 (Shinjuku),2018-09-19,18:01～19:00,0.0412,0.0341,0.0368,
新宿 (Shinjuku),2018-09-19,17:01～18:00,0.0390,0.0351,0.0368,
新宿 (Shinjuku),2018-09-19,16:01～17:00,0.0399,0.0344,0.0370,
新宿 (Shinjuku),2018-09-19,15:01～16:00,0.0399,0.0337,0.0366,
新宿 (Shinjuku),2018-09-19,14:01～15:00,0.0394,0.0345,0.0367,
新宿 (Shinjuku),2018-09-19,13:01～14:00,0.0400,0.0348,0.0367,
新宿 (Shinjuku),2018-09-19,12:01～13:00,0.0401,0.0353,0.0368,
新宿 (Shinjuku),2018-09-19,11:01～12:00,0.0381,0.0348,0.0365,
新宿 (Shinjuku),2018-09-19,10:01～11:00,0.0404,0.0348,0.0370,
新宿 (Shinjuku),2018-09-19,09:01～10:00,0.0405,0.0350,0.0370,
新宿 (Shinjuku),2018-09-19,08:01～09:00,0.0400,0.0353,0.0370,
新宿 (Shinjuku),2018-09-19,07:01～08:00,0.0392,0.0343,0.0368,
新宿 (Shinjuku),2018-09-19,06:01～07:00,0.0406,0.0343,0.0368,
新宿 (Shinjuku),2018-09-19,05:01～06:00,0.0397,0.0346,0.0370,
新宿 (Shinjuku),2018-09-19,04:01～05:00,0.0396,0.0345,0.0369,
新宿 (Shinjuku),2018-09-19,03:01～04:00,0.0385,0.0332,0.0365,
新宿 (Shinjuku),2018-09-19,02:01～03:00,0.0403,0.0347,0.0368,
新宿 (Shinjuku),2018-09-19,01:01～02:00,0.0415,0.0344,0.0369,
新宿 (Shinjuku),2018-09-19,00:01～01:00,0.0427,0.0360,0.0392,
新宿 (Shinjuku),2018-09-18,23:01～24:00,0.0434,0.0350,0.0390,
新宿 (Shinjuku),2018-09-18,22:01～23:00,0.0398,0.0349,0.0370,
新宿 (Shinjuku),2018-09-18,21:01～22:00,0.0408,0.0344,0.0369,
新宿 (Shinjuku),2018-09-18,20:01～21:00,0.0406,0.0353,0.0374,
新宿 (Shinjuku),2018-09-18,19:01～20:00,0.0432,0.0360,0.0396,
新宿 (Shinjuku),2018-09-18,18:01～19:00,0.0457,0.0349,0.0402,
新宿 (Shinjuku),2018-09-18,17:01～18:00,0.0403,0.0346,0.0366,
新宿 (Shinjuku),2018-09-18,16:01～17:00,0.0399,0.0348,0.0362,
新宿 (Shinjuku),2018-09-18,15:01～16:00,0.0384,0.0335,0.0363,
新宿 (Shinjuku),2018-09-18,14:01～15:00,0.0388,0.0341,0.0364,
新宿 (Shinjuku),2018-09-18,13:01～14:00,0.0392,0.0347,0.0365,
新宿 (Shinjuku),2018-09-18,12:01～13:00,0.0385,0.0341,0.0362,
新宿 (Shinjuku),2018-09-18,11:01～12:00,0.0397,0.0337,0.0363,
新宿 (Shinjuku),2018-09-18,10:01～11:00,0.0394,0.0345,0.0363,
新宿 (Shinjuku),2018-09-18,09:01～10:00,0.0397,0.0342,0.0363,
新宿 (Shinjuku),2018-09-18,08:01～09:00,0.0395,0.0342,0.0365,
新宿 (Shinjuku),2018-09-18,07:01～08:00,0.0394,0.0339,0.0364,
新宿 (Shinjuku),2018-09-18,06:01～07:00,0.0390,0.0336,0.0364,
新宿 (Shinjuku),2018-09-18,05:01～06:00,0.0399,0.0345,0.0366,
新宿 (Shinjuku),2018-09-18,04:01～05:00,0.0410,0.0347,0.0365,
新宿 (Shinjuku),2018-09-18,03:01～04:00,0.0402,0.0350,0.0370,
新宿 (Shinjuku),2018-09-18,02:01～03:00,0.0435,0.0348,0.0382,
新宿 (Shinjuku),2018-09-18,01:01～02:00,0.0486,0.0379,0.0429,
新宿 (Shinjuku),2018-09-18,00:01～01:00,0.0512,0.0408,0.0464,
新宿 (Shinjuku),2018-09-17,23:01～24:00,0.0453,0.0353,0.0395,
新宿 (Shinjuku),2018-09-17,22:01～23:00,0.0406,0.0349,0.0368,
新宿 (Shinjuku),2018-09-17,21:01～22:00,0.0420,0.0350,0.0370,
新宿 (Shinjuku),2018-09-17,20:01～21:00,0.0434,0.0355,0.0395,
新宿 (Shinjuku),2018-09-17,19:01～20:00,0.0529,0.0405,0.0466,
新宿 (Shinjuku),2018-09-17,18:01～19:00,0.0691,0.0517,0.0601,
新宿 (Shinjuku),2018-09-17,17:01～18:00,0.0496,0.0353,0.0377,
新宿 (Shinjuku),2018-09-17,16:01～17:00,0.0392,0.0344,0.0365,
新宿 (Shinjuku),2018-09-17,15:01～16:00,0.0404,0.0342,0.0365,
新宿 (Shinjuku),2018-09-17,14:01～15:00,0.0394,0.0351,0.0366,
新宿 (Shinjuku),2018-09-17,13:01～14:00,0.0404,0.0346,0.0371,
新宿 (Shinjuku),2018-09-17,12:01～13:00,0.0404,0.0354,0.0369,
新宿 (Shinjuku),2018-09-17,11:01～12:00,0.0408,0.0334,0.0372,
新宿 (Shinjuku),2018-09-17,10:01～11:00,0.0413,0.0355,0.0373,
新宿 (Shinjuku),2018-09-17,09:01～10:00,0.0403,0.0355,0.0371,
新宿 (Shinjuku),2018-09-17,08:01～09:00,0.0409,0.0348,0.0369,
新宿 (Shinjuku),2018-09-17,07:01～08:00,0.0417,0.0353,0.0372,
新宿 (Shinjuku),2018-09-17,06:01～07:00,0.0397,0.0344,0.0370,
新宿 (Shinjuku),2018-09-17,05:01～06:00,0.0410,0.0348,0.0366,
新宿 (Shinjuku),2018-09-17,04:01～05:00,0.0396,0.0345,0.0366,
新宿 (Shinjuku),2018-09-17,03:01～04:00,0.0393,0.0341,0.0365,
新宿 (Shinjuku),2018-09-17,02:01～03:00,0.0413,0.0331,0.0366,
新宿 (Shinjuku),2018-09-17,01:01～02:00,0.0406,0.0343,0.0367,
新宿 (Shinjuku),2018-09-17,00:01～01:00,0.0396,0.0335,0.0366,
